Weather History for Grants-Milan, NM

Change the Weather History Date:

Thursday, February 14, 2013

  Actual Average Record
Temperature  
Mean Temperature 28 °F -  
Max Temperature 48 °F 51 °F 69 °F (1957)
Min Temperature 9 °F 23 °F 0 °F (1963)
Degree Days  
Heating Degree Days 36    
Moisture  
Dew Point 14 °F    
Average Humidity 60    
Maximum Humidity 92    
Minimum Humidity 28    
Precipitation  
Precipitation 0.00 in - - ()
Sea Level Pressure  
Sea Level Pressure 30.17 in    
Wind  
Wind Speed 8 mph (NW)    
Max Wind Speed 20 mph    
Max Gust Speed 28 mph    
Visibility 10 miles    
Events      
Averages and records for this station are not official NWS values.
T = Trace of Precipitation, MM = Missing Value Source: NWS Daily Summary

Daily Weather History Graph

Daily Weather History Graph

Search for Another Location

Airport:

Trip Planner

Search our weather history database for the weather conditions in past years. The results will help you decide how hot, cold, wet, or windy it might be!

Date:

Astronomy

Feb. 14, 2013 Rise Set
Actual Time 6:58 AM MST 5:53 PM MST
Civil Twilight 6:32 AM MST 6:19 PM MST
Nautical Twilight 6:02 AM MST 6:49 PM MST
Astronomical Twilight 5:33 AM MST 7:18 PM MST
Moon 9:14 AM MST (2/14) 10:45 PM MST (2/14)
Length of Visible Light 11h 46m
Length of Day
10h 55m
Waxing Crescent, 22% of the Moon is Illuminated
Feb 14
Waxing Crescent
Feb 17
First Quarter
Feb 25
Full
Mar 4
Last Quarter
Mar 11
New

Hourly Weather History & Observations

Time (MST) Temp. Windchill Dew Point Humidity Pressure Visibility Wind Dir Wind Speed Gust Speed Precip Events Conditions
12:15 AM 16.9 °F 11.5 °F 12.2 °F 82% 30.16 in 10.0 mi NNW 3.5 mph - N/A   Clear
12:35 AM 16.2 °F 7.6 °F 11.3 °F 81% 30.16 in 10.0 mi NNW 5.8 mph - N/A   Clear
12:55 AM 14.2 °F 3.1 °F 10.9 °F 87% 30.16 in 10.0 mi NW 8.1 mph - N/A   Clear
1:15 AM 18.7 °F 8.6 °F 13.5 °F 80% 30.15 in 10.0 mi NW 8.1 mph - N/A   Clear
1:35 AM 18.9 °F 9.8 °F 13.1 °F 78% 30.15 in 10.0 mi WNW 6.9 mph - N/A   Clear
1:55 AM 16.7 °F 9.6 °F 12.6 °F 84% 30.15 in 10.0 mi NNW 4.6 mph - N/A   Clear
2:15 AM 14.9 °F 9.2 °F 11.1 °F 85% 30.15 in 10.0 mi WNW 3.5 mph - N/A   Clear
2:35 AM 13.1 °F 5.4 °F 9.9 °F 87% 30.15 in 10.0 mi NNW 4.6 mph - N/A   Clear
3:15 AM 14.7 °F - 11.5 °F 87% 30.13 in 10.0 mi Calm Calm - N/A   Clear
3:35 AM 11.3 °F 3.3 °F 7.9 °F 86% 30.14 in 10.0 mi NW 4.6 mph - N/A   Clear
3:55 AM 13.1 °F 2.8 °F 10.4 °F 89% 30.13 in 10.0 mi NW 6.9 mph - N/A   Clear
4:15 AM 13.8 °F 3.7 °F 10.9 °F 88% 30.14 in 10.0 mi NW 6.9 mph - N/A   Clear
4:35 AM 14.5 °F 5.7 °F 10.9 °F 86% 30.14 in 10.0 mi NW 5.8 mph - N/A   Clear
4:55 AM 12.6 °F 4.8 °F 9.7 °F 88% 30.15 in 10.0 mi WNW 4.6 mph - N/A   Clear
5:15 AM 10.0 °F 0.4 °F 7.7 °F 90% 30.15 in 10.0 mi NW 5.8 mph - N/A   Clear
5:35 AM 12.7 °F 3.6 °F 9.9 °F 88% 30.15 in 10.0 mi NW 5.8 mph - N/A   Clear
5:55 AM 12.0 °F 4.1 °F 8.8 °F 87% 30.15 in 10.0 mi NW 4.6 mph - N/A   Clear
6:15 AM 10.2 °F 0.6 °F 8.2 °F 92% 30.15 in 10.0 mi WNW 5.8 mph - N/A   Clear
6:35 AM 10.4 °F 2.2 °F 7.7 °F 89% 30.16 in 10.0 mi NNW 4.6 mph - N/A   Clear
6:55 AM 9.0 °F -0.9 °F 6.4 °F 89% 30.16 in 10.0 mi NNW 5.8 mph - N/A   Clear
7:15 AM 9.3 °F -2.8 °F 6.8 °F 89% 30.16 in 10.0 mi NW 8.1 mph - N/A   Clear
7:35 AM 13.6 °F 2.5 °F 10.8 °F 88% 30.17 in 10.0 mi NW 8.1 mph - N/A   Clear
7:55 AM 16.2 °F 6.5 °F 12.2 °F 84% 30.18 in 10.0 mi NW 6.9 mph - N/A   Clear
8:15 AM 18.9 °F 12.1 °F 14.7 °F 84% 30.18 in 10.0 mi NW 4.6 mph - N/A   Clear
8:35 AM 21.0 °F 14.6 °F 15.6 °F 80% 30.18 in 10.0 mi NNW 4.6 mph - N/A   Clear
8:55 AM 24.6 °F 16.7 °F 17.6 °F 75% 30.18 in 10.0 mi NW 6.9 mph - N/A   Clear
9:15 AM 28.2 °F 21.0 °F 18.7 °F 67% 30.18 in 10.0 mi NW 6.9 mph - N/A   Clear
9:35 AM 32.0 °F 25.6 °F 19.2 °F 59% 30.18 in 10.0 mi NW 6.9 mph - N/A   Clear
9:55 AM 35.6 °F 29.2 °F 20.1 °F 53% 30.17 in 10.0 mi NNW 8.1 mph - N/A   Clear
10:15 AM 38.7 °F 32.4 °F 19.8 °F 47% 30.16 in 10.0 mi NNW 9.2 mph 16.1 mph N/A   Clear
10:35 AM 41.2 °F 34.1 °F 19.4 °F 42% 30.16 in 10.0 mi North 12.7 mph 19.6 mph N/A   Clear
10:55 AM 41.9 °F 35.0 °F 19.0 °F 40% 30.16 in 10.0 mi North 12.7 mph 20.7 mph N/A   Clear
11:15 AM 43.2 °F 35.6 °F 18.1 °F 37% 30.16 in 10.0 mi NNW 16.1 mph 20.7 mph N/A   Clear
11:35 AM 44.4 °F 36.6 °F 17.4 °F 34% 30.15 in 10.0 mi NNW 18.4 mph 25.3 mph N/A   Clear
11:55 AM 45.7 °F 39.5 °F 16.5 °F 31% 30.14 in 10.0 mi NW 13.8 mph 21.9 mph N/A   Clear
12:15 PM 46.8 °F - 16.0 °F 29% 30.14 in 10.0 mi North 18.4 mph 26.5 mph N/A   Clear
12:35 PM 46.4 °F 39.0 °F 15.8 °F 29% 30.14 in 10.0 mi NNW 19.6 mph 26.5 mph N/A   Clear
12:55 PM 46.2 °F 39.3 °F 16.2 °F 30% 30.14 in 10.0 mi North 17.3 mph 26.5 mph N/A   Clear
1:15 PM 46.6 °F - 15.4 °F 29% 30.14 in 10.0 mi North 17.3 mph 24.2 mph N/A   Clear
1:35 PM 47.5 °F - 16.0 °F 28% 30.12 in 10.0 mi North 17.3 mph 24.2 mph N/A   Clear
1:55 PM 47.5 °F - 15.4 °F 28% 30.12 in 10.0 mi North 11.5 mph 23.0 mph N/A   Clear
2:15 PM 48.2 °F - 16.7 °F 29% 30.12 in 10.0 mi NNW 17.3 mph 23.0 mph N/A   Clear
2:35 PM 48.2 °F - 18.0 °F 30% 30.13 in 10.0 mi NNW 17.3 mph 27.6 mph N/A   Clear
2:55 PM 47.5 °F - 18.3 °F 31% 30.13 in 10.0 mi NNW 19.6 mph 26.5 mph N/A   Clear
3:15 PM 47.3 °F - 18.5 °F 32% 30.14 in 10.0 mi NNW 17.3 mph 26.5 mph N/A   Clear
3:35 PM 47.1 °F - 18.7 °F 32% 30.14 in 10.0 mi NNW 15.0 mph 23.0 mph N/A   Clear
3:55 PM 47.1 °F - 19.0 °F 33% 30.14 in 10.0 mi NNW 15.0 mph 21.9 mph N/A   Clear
4:15 PM 46.6 °F - 17.6 °F 32% 30.15 in 10.0 mi NNW 18.4 mph 23.0 mph N/A   Clear
4:35 PM 45.7 °F 38.3 °F 17.2 °F 32% 30.14 in 10.0 mi NNW 18.4 mph 24.2 mph N/A   Clear
4:55 PM 44.6 °F 36.6 °F 15.4 °F 31% 30.14 in 10.0 mi NNW 19.6 mph 27.6 mph N/A   Clear
5:15 PM 43.7 °F 36.3 °F 14.7 °F 31% 30.14 in 10.0 mi NW 16.1 mph 20.7 mph N/A   Clear
5:35 PM 42.1 °F 35.2 °F 13.1 °F 31% 30.15 in 10.0 mi NNW 12.7 mph - N/A   Clear
5:55 PM 39.7 °F 33.2 °F 12.6 °F 33% 30.15 in 10.0 mi NNW 10.4 mph - N/A   Clear
6:15 PM 37.4 °F 30.8 °F 13.1 °F 37% 30.16 in 10.0 mi NNW 9.2 mph - N/A   Clear
6:35 PM 34.9 °F 28.3 °F 13.1 °F 41% 30.17 in 10.0 mi NNW 8.1 mph - N/A   Clear
6:55 PM 32.9 °F 25.9 °F 13.6 °F 45% 30.18 in 10.0 mi NNW 8.1 mph - N/A   Clear
7:15 PM 30.9 °F 21.2 °F 14.0 °F 50% 30.19 in 10.0 mi NW 12.7 mph - N/A   Clear
7:35 PM 28.9 °F 21.9 °F 13.3 °F 52% 30.20 in 10.0 mi NW 6.9 mph - N/A   Clear
7:55 PM 29.8 °F 26.3 °F 14.2 °F 52% 30.20 in 10.0 mi WNW 3.5 mph - N/A   Clear
8:15 PM 29.3 °F 21.5 °F 14.2 °F 53% 30.21 in 10.0 mi North 8.1 mph - N/A   Clear
8:35 PM 27.7 °F - 13.6 °F 56% 30.23 in 10.0 mi Calm Calm - N/A   Clear
8:55 PM 27.0 °F 18.0 °F 15.1 °F 61% 30.23 in 10.0 mi NW 9.2 mph - N/A   Clear
9:15 PM 26.8 °F 17.7 °F 14.9 °F 61% 30.23 in 10.0 mi NNW 9.2 mph - N/A   Clear
9:35 PM 25.0 °F 16.3 °F 14.2 °F 64% 30.24 in 10.0 mi NW 8.1 mph - N/A   Clear
9:55 PM 25.2 °F 16.5 °F 14.9 °F 65% 30.24 in 10.0 mi NW 8.1 mph - N/A   Clear
10:15 PM 22.6 °F 13.4 °F 14.2 °F 70% 30.24 in 10.0 mi NW 8.1 mph - N/A   Clear
10:35 PM 22.1 °F 17.4 °F 13.6 °F 70% 30.26 in 10.0 mi NW 3.5 mph - N/A   Clear
10:55 PM 22.3 °F 13.9 °F 14.5 °F 72% 30.26 in 10.0 mi NW 6.9 mph - N/A   Clear
11:15 PM 25.0 °F 19.3 °F 15.6 °F 68% 30.26 in 10.0 mi SW 4.6 mph - N/A   Clear
11:35 PM 21.6 °F 15.3 °F 14.7 °F 75% 30.27 in 10.0 mi WNW 4.6 mph - N/A   Clear
11:55 PM 21.7 °F 15.5 °F 15.3 °F 76% 30.27 in 10.0 mi NW 4.6 mph - N/A   Clear